Date,TemperatureHighF,TemperatureAvgF,TemperatureLowF,DewpointHighF,DewpointAvgF,DewpointLowF,HumidityHigh,HumidityAvg,HumidityLow,PressureMaxIn,PressureMinIn,WindSpeedMaxMPH,WindSpeedAvgMPH,GustSpeedMaxMPH,PrecipitationSumIn
2013-6-29,80.1,76.0,72.9,66.2,65.4,63.2,78,70,58,29.62,29.50,10,4,10,0.00
2013-6-30,80.4,73.8,71.1,68.2,66.1,63.7,83,77,65,29.76,29.61,8,2,8,0.00
2013-7-1,79.2,75.1,73.6,74.5,70.7,66.7,98,86,78,29.91,29.75,6,2,6,0.08
2013-7-2,80.4,75.5,73.2,73.2,71.7,70.2,94,88,77,30.09,29.97,8,3,8,0.00
2013-7-3,84.6,76.9,72.3,73.7,71.5,68.3,93,83,67,30.14,30.07,11,3,11,0.00
2013-7-4,88.5,79.6,73.9,75.6,72.8,70.7,95,80,65,30.14,30.06,11,3,11,0.00
2013-7-5,91.0,81.1,73.4,76.8,72.5,70.2,91,76,62,30.10,29.99,8,3,9,0.00
2013-7-6,93.6,83.7,76.5,76.6,73.3,70.6,86,72,57,30.01,29.90,8,3,8,0.00
2013-7-7,93.0,83.3,75.2,76.3,72.9,70.8,87,72,55,29.93,29.82,9,2,9,0.00
2013-7-8,90.0,80.8,73.6,73.9,70.6,66.9,83,71,58,29.92,29.83,8,3,8,0.00
2013-7-9,88.5,79.5,72.7,73.4,70.7,67.3,90,75,59,29.96,29.90,7,2,7,0.00
2013-7-10,84.2,78.9,73.2,73.7,71.9,70.4,92,80,69,29.92,29.71,8,3,8,0.00
2013-7-11,82.0,77.1,73.0,74.6,72.2,70.6,93,85,73,29.80,29.69,4,1,4,0.17
2013-7-12,77.9,73.1,68.9,70.8,67.4,65.3,94,83,74,30.01,29.79,11,2,11,0.14
2013-7-13,80.1,74.2,69.3,74.8,71.4,67.4,98,91,81,30.18,30.01,9,2,9,0.06
2013-7-14,90.7,84.2,73.4,76.0,73.5,70.6,97,71,59,30.20,30.11,8,3,8,0.00
2013-7-15,93.2,83.8,74.5,76.7,72.9,69.8,90,71,56,30.12,30.00,8,2,8,0.00
2013-7-16,92.3,83.5,74.5,75.0,71.3,69.4,85,68,54,30.06,29.99,6,1,6,0.00
2013-7-17,96.4,82.8,73.9,78.3,72.8,69.5,91,72,55,30.07,29.95,5,1,5,0.00
2013-7-18,97.0,87.1,78.4,78.4,74.3,70.3,80,66,53,29.95,29.84,6,2,6,0.00
2013-7-19,97.9,86.8,79.9,80.0,75.7,73.0,85,70,56,29.85,29.68,14,4,14,0.00
2013-7-20,91.2,83.5,79.3,76.6,74.2,71.2,84,74,59,29.73,29.59,15,3,15,0.00
2013-7-21,86.7,79.6,73.4,72.0,69.0,66.5,89,71,55,29.86,29.72,8,1,8,0.00
2013-7-22,84.9,77.7,73.0,74.7,72.7,69.6,93,85,70,29.85,29.72,8,1,8,0.00
2013-7-23,86.4,79.9,72.3,75.9,73.9,68.1,95,83,66,29.72,29.45,8,2,8,0.20
2013-7-24,85.3,78.4,69.8,74.8,69.6,61.6,98,75,64,29.79,29.48,7,2,7,0.01
2013-7-25,72.1,64.6,61.7,61.5,59.5,56.5,95,84,69,29.93,29.79,8,2,8,0.22
2013-7-26,73.8,66.5,61.3,65.7,63.1,59.8,97,89,74,29.94,29.83,7,2,7,0.53
2013-7-27,85.8,74.1,66.7,69.6,67.0,64.2,96,80,57,29.95,29.86,6,2,6,0.00
2013-7-28,86.2,75.0,68.5,71.4,68.4,65.7,95,81,60,29.90,29.83,5,1,5,0.00
2013-7-29,86.0,77.4,69.6,74.4,69.9,64.4,95,79,61,29.96,29.84,6,1,6,0.00
2013-7-30,80.4,73.6,64.0,64.8,61.4,57.8,85,66,54,30.03,29.95,7,2,7,0.00
2013-7-31,84.4,72.4,61.5,66.9,62.7,58.7,92,73,55,30.03,29.94,6,1,6,0.00
2013-8-1,79.3,70.7,66.6,68.7,65.6,63.0,95,84,65,29.94,29.73,6,1,6,0.15
2013-8-2,83.7,74.9,68.5,68.9,67.1,63.9,98,78,53,29.80,29.67,10,2,10,0.06
2013-8-3,78.6,72.5,69.6,67.9,65.2,62.2,85,78,68,29.80,29.72,8,2,8,0.00
2013-8-4,81.5,72.5,62.6,66.2,61.9,57.5,95,71,53,29.82,29.71,9,2,9,0.00
2013-8-5,76.5,69.5,63.3,59.2,56.0,52.4,77,63,48,29.93,29.82,9,2,9,0.00
2013-8-6,75.0,65.3,61.5,60.7,56.4,55.6,86,73,61,30.03,29.93,4,0,4,0.00
2013-8-7,78.8,69.7,58.3,65.7,62.1,56.8,96,78,59,30.06,29.99,6,2,6,0.00
2013-8-8,80.4,74.8,70.0,71.4,69.1,65.7,92,82,72,29.99,29.92,9,3,9,0.00
2013-8-9,80.2,76.2,74.1,74.3,72.3,70.8,93,88,80,29.93,29.69,13,4,13,0.00
2013-8-10,85.3,77.1,70.5,72.7,67.1,61.6,96,73,53,29.92,29.71,11,2,11,0.00
2013-8-11,83.5,73.0,63.5,63.3,59.5,53.5,75,64,46,29.99,29.92,6,1,6,0.00
2013-8-12,75.0,71.2,67.5,71.1,67.7,62.9,97,89,74,29.94,29.82,3,0,3,0.30
2013-8-13,73.6,69.2,65.7,73.0,68.2,65.1,99,97,90,29.83,29.58,5,0,5,0.71
2013-8-14,75.2,70.0,64.2,68.5,59.3,55.2,99,70,55,29.91,29.59,11,3,11,0.01
2013-8-15,79.7,69.0,59.5,59.3,56.2,51.8,84,65,40,30.03,29.90,7,2,7,0.00
2013-8-16,84.4,67.8,59.5,64.7,59.3,57.0,94,76,44,30.09,30.00,3,1,3,0.00
2013-8-17,84.7,70.4,57.2,67.0,60.2,56.0,96,73,44,30.16,30.09,4,0,4,0.00
2013-8-18,77.4,68.1,61.0,65.5,61.2,57.8,92,79,61,30.15,30.00,6,1,6,0.01
2013-8-19,83.1,68.9,59.9,67.3,61.6,56.4,91,78,56,30.01,29.90,4,2,4,0.00
2013-8-20,86.7,74.7,63.5,68.8,64.9,60.9,94,73,51,30.01,29.91,8,1,8,0.01
2013-8-21,90.9,76.2,64.9,72.0,67.0,63.2,99,76,44,30.05,29.97,5,1,5,0.00
2013-8-22,73.6,72.7,72.3,70.2,69.9,69.4,92,91,89,29.91,29.90,4,2,4,0.00
2013-8-23,83.7,73.1,64.4,70.5,65.0,61.1,98,77,54,29.99,29.73,5,1,5,0.00
2013-8-24,81.3,69.3,59.4,63.1,58.8,55.4,92,70,52,30.23,29.99,6,1,6,0.00
2013-8-25,84.9,69.1,54.1,66.1,59.0,52.5,97,73,43,30.26,30.11,5,1,5,0.00
2013-8-26,80.1,72.6,69.1,70.2,64.9,59.3,97,77,65,30.11,29.81,7,2,7,0.15
2013-8-27,81.0,74.5,69.8,72.5,70.2,67.8,99,87,73,29.81,29.69,11,1,11,0.30
2013-8-28,93.0,75.4,66.6,76.1,70.3,66.3,99,85,56,29.78,29.73,5,1,5,0.00
2013-8-29,76.8,71.0,66.2,70.8,66.5,61.9,96,86,73,29.93,29.78,7,2,7,0.00
2013-8-30,80.4,71.4,64.4,70.6,65.9,60.0,94,83,70,29.92,29.75,6,2,6,0.00
2013-8-31,73.0,72.7,72.5,70.6,69.9,69.4,93,91,90,29.76,29.73,4,2,4,0.00
2013-9-1,80.6,76.6,73.8,74.3,73.1,70.8,97,89,79,29.76,29.71,8,2,8,0.00
2013-9-2,79.9,75.6,71.4,75.0,73.1,70.1,99,92,81,29.73,29.60,5,1,5,0.00
2013-9-3,76.8,71.1,69.3,73.0,68.3,60.9,99,92,69,29.75,29.59,4,1,4,0.17
2013-9-4,80.2,71.1,59.4,64.5,60.9,57.3,96,72,46,29.85,29.73,8,2,8,0.00
2013-9-5,78.8,71.2,64.6,65.1,58.3,49.6,87,64,49,30.01,29.79,9,3,9,0.00
2013-9-6,72.9,62.6,54.9,52.5,50.3,47.7,83,65,44,30.12,30.00,5,1,5,0.00
2013-9-7,77.0,64.0,49.3,59.1,53.1,48.2,97,71,46,30.00,29.82,8,2,8,0.00
2013-9-8,82.2,72.7,62.4,66.3,59.7,49.8,87,65,47,29.96,29.68,10,3,10,0.00
2013-9-9,77.2,61.7,54.0,55.5,50.8,46.2,86,68,43,30.13,29.96,4,1,4,0.00
2013-9-10,76.8,64.5,59.9,70.8,60.3,55.4,93,86,80,30.06,29.96,7,1,7,0.04
2013-9-11,93.7,78.7,72.7,78.7,72.1,70.4,94,81,61,30.00,29.89,8,2,8,0.00
2013-9-12,82.6,75.9,69.8,73.4,71.4,67.9,98,86,73,29.89,29.61,11,4,11,0.30
2013-9-13,84.2,71.6,62.8,70.1,65.1,56.4,99,81,62,29.68,29.50,9,2,9,0.02
2013-9-14,69.3,62.7,56.7,56.8,54.0,51.3,85,73,61,29.97,29.67,9,3,9,0.00
2013-9-15,71.1,59.2,49.3,57.9,52.5,47.8,95,79,54,30.08,29.96,4,1,4,0.00
2013-9-16,66.2,62.5,57.7,61.0,56.7,46.2,95,82,65,30.10,29.92,9,1,9,0.00
2013-9-17,64.8,54.7,45.7,46.7,43.6,38.7,93,67,47,30.29,30.10,13,2,13,0.00
2013-9-18,75.6,56.7,42.1,54.4,48.6,41.0,97,77,48,30.22,30.06,5,1,5,0.00
2013-9-19,77.9,62.1,48.6,59.6,54.4,48.3,99,78,48,30.06,29.95,5,1,5,0.00
2013-9-20,81.5,63.8,50.5,62.6,57.5,50.3,99,82,51,29.97,29.90,6,1,6,0.00
2013-9-21,78.1,66.6,54.3,69.5,63.0,54.1,99,89,71,29.91,29.59,13,3,13,0.00
2013-9-22,72.0,66.2,57.4,68.9,59.2,46.5,99,79,57,29.76,29.53,11,3,11,0.33
2013-9-23,57.6,55.9,55.6,46.7,46.1,45.9,71,70,67,29.77,29.75,9,3,9,0.00
2013-9-30,69.4,62.7,57.4,54.5,51.9,46.8,86,70,46,30.05,30.03,4,1,4,0.00
2013-10-1,78.8,65.8,55.9,55.6,54.1,51.8,88,68,43,30.03,29.93,6,1,6,0.00
2013-10-2,81.3,66.6,55.9,60.1,56.6,52.4,89,72,43,30.05,29.96,12,1,12,0.00
2013-10-3,81.0,68.5,53.1,73.4,53.7,41.1,94,62,26,30.06,29.91,4,1,4,0.65
2013-10-4,83.7,71.2,58.3,63.6,59.7,52.3,87,68,49,29.94,29.84,8,2,8,0.00
2013-10-5,72.7,66.8,63.7,60.3,59.1,57.9,86,77,64,29.97,29.89,4,1,4,0.00
2013-10-6,64.6,64.4,63.9,60.0,59.7,59.0,85,85,84,29.97,29.94,3,1,3,0.00
2013-10-18,67.5,59.1,50.2,47.0,43.6,41.9,73,58,43,29.82,29.68,11,3,11,0.00
2013-10-19,68.0,55.6,43.2,52.8,43.9,38.4,84,67,38,29.85,29.61,6,1,6,0.05
2013-10-20,59.9,57.1,55.6,55.7,48.6,44.0,86,74,65,29.64,29.58,11,4,11,0.01
2013-11-1,63.9,61.7,60.4,55.8,54.6,53.5,84,77,72,29.55,29.43,8,3,8,0.54
2013-11-2,72.5,59.5,52.3,55.6,47.9,41.7,89,67,42,29.61,29.47,6,1,6,0.00
2013-11-3,57.2,48.6,38.1,43.4,33.0,20.4,72,55,42,30.26,29.61,12,3,12,0.13
2013-11-4,51.4,38.8,31.5,26.6,19.5,10.4,69,47,24,30.52,30.26,8,2,8,0.00
2013-11-5,59.7,44.0,33.1,37.7,32.7,24.0,79,65,43,30.53,30.35,7,1,7,0.00
2013-11-6,63.9,50.4,34.9,54.1,42.4,30.0,88,75,48,30.35,29.93,9,1,9,0.00
2013-11-7,63.9,57.3,45.5,59.0,51.2,32.8,89,80,61,29.93,29.57,11,4,12,0.11
2013-11-8,50.9,45.3,38.8,32.8,28.7,23.8,72,53,37,30.02,29.74,19,6,19,0.00
2013-11-9,50.0,44.8,36.7,36.5,28.4,23.3,67,53,38,30.11,29.88,10,3,10,0.01
2013-11-10,61.9,52.4,47.3,39.5,34.3,24.3,69,51,25,29.88,29.61,24,8,24,0.00
2013-11-11,53.4,49.7,45.0,39.4,30.6,23.7,60,48,32,30.02,29.81,19,6,19,0.00
2013-11-12,52.2,39.1,31.5,37.1,24.8,14.1,84,57,45,30.09,29.76,14,5,14,0.09
2013-11-13,41.5,33.5,29.3,20.7,14.9,7.6,58,46,30,30.19,30.07,13,5,13,0.00
2013-11-14,53.1,42.7,32.2,24.6,16.7,11.1,55,37,20,30.09,29.96,14,5,14,0.00
2013-11-15,60.6,47.8,36.9,39.6,33.3,24.6,87,58,38,30.10,30.02,10,2,10,0.00
2013-11-16,62.8,48.8,39.4,45.0,39.4,34.8,87,71,47,30.18,30.06,6,1,6,0.00
2013-11-17,62.6,55.1,39.9,58.4,51.4,36.7,94,87,77,30.13,29.68,8,2,8,0.00
2013-11-18,69.1,60.4,52.3,60.5,44.9,28.9,94,60,28,29.68,29.45,21,6,21,0.26
2013-11-19,53.4,45.0,35.2,30.5,25.1,19.3,57,46,34,30.17,29.58,21,7,21,0.00
2013-11-20,48.6,35.1,24.1,20.6,16.8,11.1,69,48,24,30.45,30.16,11,2,11,0.00
2013-11-21,54.0,37.5,22.6,37.1,27.3,14.9,77,67,46,30.48,29.67,7,1,7,0.00
2013-11-22,54.7,50.8,43.9,50.0,45.5,37.1,89,82,74,29.67,29.16,9,2,9,0.04
2013-11-23,53.4,44.9,32.7,48.1,28.0,6.9,86,53,27,29.27,29.14,21,7,21,0.02
2013-11-24,32.7,27.5,24.8,14.2,-1.0,-10.1,52,29,18,29.57,29.18,25,12,25,0.06
2013-11-25,39.6,29.5,23.4,18.0,8.8,-3.3,52,42,23,29.75,29.56,18,4,18,0.00
2013-11-26,53.1,40.4,34.9,50.9,25.2,14.9,93,58,32,29.63,29.16,12,3,12,0.24
2013-11-27,63.3,52.1,37.2,60.0,48.2,26.0,93,87,64,29.16,28.53,23,8,23,1.15
2013-11-28,39.4,32.5,26.1,26.4,14.3,8.5,65,47,31,29.76,28.92,26,9,26,0.04
2013-11-29,44.2,33.6,28.4,23.0,15.9,12.4,56,48,37,30.02,29.74,8,2,8,0.00
2013-11-30,42.3,32.4,24.6,30.8,15.3,6.4,69,50,27,30.05,29.66,10,2,10,0.00
2013-12-1,58.8,46.0,37.9,46.2,39.6,30.8,93,79,61,29.66,29.30,6,2,6,0.00
2013-12-2,45.5,36.8,28.9,38.8,31.6,17.1,88,82,52,30.61,29.29,4,0,4,1.54
2013-12-3,52.2,40.1,31.1,39.8,33.4,26.7,92,78,54,30.00,29.88,8,1,8,0.00
2013-12-4,59.0,40.3,28.4,38.7,32.1,24.5,86,74,44,30.18,30.00,5,1,5,0.00
2013-12-5,63.9,55.3,42.6,55.3,50.4,38.6,91,84,72,30.17,29.97,11,3,11,0.00
2013-12-6,59.5,48.8,38.7,57.2,45.1,35.4,92,87,75,30.14,29.90,13,3,13,0.35
2013-12-7,44.2,37.8,32.9,36.0,26.4,14.0,90,65,43,30.50,30.07,14,4,14,0.21
2013-12-8,34.2,32.3,29.8,28.0,18.6,14.9,83,57,47,30.63,30.41,10,2,10,0.00
2013-12-9,49.5,39.3,31.1,46.9,36.2,27.3,92,89,82,30.41,29.91,16,4,16,0.26
2013-12-10,38.7,34.0,29.7,32.6,27.1,16.7,86,76,50,30.10,29.81,21,5,21,0.15
2013-12-11,38.7,30.6,25.9,16.7,11.9,8.7,58,46,31,30.33,30.10,14,5,14,0.00
2013-12-12,32.7,25.9,19.8,14.5,4.8,-4.2,55,40,24,30.33,30.16,12,4,12,0.00
2013-12-13,36.9,28.9,21.4,17.8,4.8,-4.8,60,36,25,30.35,30.11,21,7,21,0.00
2013-12-14,40.1,26.8,21.0,38.0,18.5,8.7,92,71,46,30.56,29.90,16,5,16,0.20
2013-12-15,44.4,38.0,29.3,42.2,29.8,17.2,93,73,51,30.99,29.48,22,9,22,0.79
2013-12-16,33.6,29.0,19.6,18.6,7.6,-2.3,57,41,26,30.61,30.21,22,6,22,0.00
2013-12-17,35.2,26.6,19.0,31.2,18.4,3.5,87,72,49,30.64,30.28,11,3,11,0.31
2013-12-18,38.5,30.4,23.7,24.0,18.7,16.5,78,62,48,30.55,30.28,14,5,14,0.00
2013-12-19,50.4,38.2,27.0,30.9,22.2,14.4,65,53,33,30.58,30.41,22,4,22,0.01
2013-12-20,54.7,44.4,30.6,44.1,33.0,23.5,85,65,41,30.52,30.38,11,3,11,0.00
2013-12-21,61.9,54.3,47.7,52.9,46.1,43.6,87,74,56,30.42,30.31,17,5,17,0.00
2013-12-22,62.2,59.6,57.7,55.4,52.9,49.2,87,79,64,30.39,30.24,27,8,27,0.00
2013-12-23,59.9,53.3,41.2,53.3,48.8,34.2,90,85,76,30.51,30.28,9,2,9,0.35
2013-12-24,43.3,36.0,28.8,34.2,19.6,11.6,76,52,32,30.68,30.45,17,4,17,0.01
2013-12-25,32.5,25.6,21.6,15.4,3.0,-6.3,56,38,23,30.94,30.68,12,3,12,0.00
2013-12-26,48.2,34.2,25.9,22.0,16.4,9.8,68,50,24,30.83,29.94,10,2,10,4.44
2013-12-27,29.1,29.1,29.1,19.9,19.9,19.9,68,68,68,30.00,30.00,0,0,1,0.00
2013-12-28,53.4,41.4,28.9,33.5,22.7,11.4,68,49,24,30.45,29.92,11,2,11,4.44
2013-12-29,55.9,45.0,41.7,53.1,36.9,28.2,91,74,53,29.92,29.19,16,4,16,0.83
2013-12-30,44.6,36.2,22.1,36.8,25.0,-6.0,87,66,25,30.02,29.49,15,5,15,0.01
2013-12-31,34.9,26.6,19.4,16.7,6.4,-3.0,55,42,26,30.10,29.92,18,4,18,0.00
2014-1-1,35.6,28.0,21.0,16.9,8.0,-1.7,56,43,28,30.27,30.10,13,4,13,0.00
2014-1-2,31.1,27.5,17.2,25.4,20.2,10.4,84,74,51,30.13,29.51,13,6,16,0.00